Regional Weather Roundup
Issued by NWS

Home | Current Version | Previous Version | Text Only | Print | Product List | Glossary On
Versions: 1 2 3 4 5 6 7 8 9 10 11 12 13 14 15 16 17 18 19 20 21 22 23 24 25 26 27 28 29 30 31 32 33 34 35 36 37 38 39 40 41 42 43 44 45 46 47 48 49 50
000
ASUS43 KDTX 220401
RWRMI
MICHIGAN HOURLY REGIONAL WEATHER ROUNDUP
NATIONAL WEATHER SERVICE DETROIT/PONTIAC MI
1200 AM EDT FRI AUG 22 2014

NOTE: "FAIR" INDICATES FEW OR NO CLOUDS BELOW 12,000 FEET WITH NO
SIGNIFICANT WEATHER AND/OR OBSTRUCTION TO VISIBILITY.

MIZ047>049-052>055-059>063-066>070-074>076-081>083-220500-
SOUTHEAST LOWER MICHIGAN

CITY           SKY/WX    TMP DP  RH WIND       PRES   REMARKS
ADRIAN         CLOUDY    73  70  90 CALM      30.00R
ALMA           MOCLDY    69  67  93 E3        29.99S
ANN ARBOR      FOG       70  68  93 CALM      29.99S VSB 3/4
BAD AXE        FOG       57  57 100 CALM      30.01R VSB 1/2
CARO           CLOUDY    64  63  96 CALM      30.00S
DETROIT CITY   LGT RAIN  74  70  87 NE9       29.98F
DETROIT        CLOUDY    73  70  88 NE3       29.99S
FLINT          CLOUDY    72  65  78 E8        30.00R
GROSSE ILE     CLOUDY    75  72  88 CALM      29.97S
HILLSDALE      PTCLDY    70  70 100 CALM      30.00F
HOWELL         MOCLDY    70  69  98 CALM      29.99S

CITY           SKY/WX    TMP DP  RH WIND       PRES   REMARKS
JACKSON        MOCLDY    70  68  93 CALM      29.99F FOG
LAMBERTVILLE   CLOUDY    73  70  88 CALM      29.99S
LANSING        CLOUDY    71  68  90 CALM      29.99R
LAPEER         CLOUDY    65  63  91 CALM      30.01S
MASON          MOCLDY    69  69  97 CALM      29.99S FOG
MONROE         CLOUDY    73  70  88 SW3       29.97S
MT. CLEMENS    MOCLDY    68  63  84 N5        29.99S
PONTIAC        MOCLDY    72  66  81 E6        29.99R
PORT HOPE        N/A     61  59  93 CALM      29.99S
PORT HURON     CLOUDY    66  64  94 CALM      30.00S
TRI CITIES     CLOUDY    69  64  84 E6        30.01R
TROY           CLOUDY    72  69  92 NE9       30.00F FOG
SAGINAW HB     CLOUDY    68  68 100 E3        29.99S
$$
MIZ043>046-050>051-056>058-064>065-071>073-077>080-220500-
SOUTHWEST LOWER MICHIGAN

CITY           SKY/WX    TMP DP  RH WIND       PRES   REMARKS
BATTLE CREEK   CLOUDY    74  71  91 CALM      29.99S
BENTON HARBOR  PTCLDY    71  70  96 E5        29.96R FOG
BIG RAPIDS     CLOUDY    67  67 100 CALM      29.99S
COLDWATER      CLOUDY    71  70  96 CALM      29.99S
FREMONT        CLOUDY    70  69  98 E3        29.98R FOG
HOLLAND        CLOUDY    73  70  90 CALM      29.97S FOG
GRAND RAPIDS   MOCLDY    72  72 100 SE3       29.98S FOG
IONIA          MOCLDY    69  68  96 E5        29.98S
KALAMAZOO      CLOUDY    73  70  90 CALM      29.99R
LUDINGTON      FOG       67  66  97 CALM      29.97S VSB 1/2
MARSHALL       MOCLDY    69  68  99 CALM      29.98F FOG
MOUNT PLEASANT CLOUDY    69  67  93 CALM      30.00R
MUSKEGON       CLOUDY    72  69  90 CALM      29.98R FOG
SOUTH HAVEN    PTCLDY    71  71 100 CALM      29.97S FOG
$$
MIZ016>042-220500-
NORTHERN LOWER MICHIGAN

CITY           SKY/WX    TMP DP  RH WIND       PRES   REMARKS
ALPENA         FOG       59  59 100 CALM      30.00F VSB 1/4
BEAVER ISLAND  MOCLDY    63  63  97 CALM      29.99S
BELLAIRE       CLOUDY    66  63  92 CALM      29.98F
CADILLAC       CLOUDY    69  66  92 CALM      30.00S
CHARLEVOIX     CLOUDY    67  64  92 CALM      30.01F
FRANKFORT      MOCLDY    69  64  84 CALM      29.96S
GAYLORD        PTCLDY    64  62  93 S3        30.02R
GRAYLING       CLOUDY    69  67  94 E5        30.02S
HARBOR SPRINGS PTCLDY    65  63  90 NE3       29.99S
HOUGHTON LAKE  CLOUDY    67  64  90 SE5       30.02R
MANISTEE       MOCLDY    68  64  88 CALM      29.98S
OSCODA         CLEAR     58  57  97 CALM      30.00S
PELLSTON       PTCLDY    59  58  96 CALM      30.00S
ROGERS CITY    CLEAR     61  61 100 CALM      30.01S
TRAVERSE CITY  MOCLDY    68  64  87 CALM      29.97S
$$
MIZ007>008-015-220500-
EASTERN UPPER MICHIGAN

CITY           SKY/WX    TMP DP  RH WIND       PRES   REMARKS
KINROSS        PTCLDY    63  63 100 CALM      30.01R
MACKINAC ISLAN CLEAR     62  62  99 S7        30.00S
NEWBERRY       PTCLDY    58  58  97 W6        30.00S
S. S. MARIE    MOCLDY    62  59  90 NW3       30.00R
$$
MIZ004>006-011>014-085-220500-
CENTRAL UPPER MICHIGAN

CITY           SKY/WX    TMP DP  RH WIND       PRES   REMARKS
MANISTIQUE     CLOUDY    60  59  98 CALM      29.98S
ESCANABA       CLOUDY    64  61  88 CALM      29.97F
MENOMINEE      MOCLDY    66  61  82 E6        29.95S
SAWYER-GWINN   CLOUDY    66  61  85 CALM      30.00R
$$
MIZ001>003-009>011-084-220500-
WESTERN UPPER MICHIGAN

CITY           SKY/WX    TMP DP  RH WIND       PRES   REMARKS
IRON MOUNTAIN  CLOUDY    65  62  90 SE5       29.96F
HOUGHTON       CLOUDY    57  55  93 E6        29.97S FOG
COPPER HARBOR    N/A     56  55  97 CALM      29.97S
IRONWOOD       CLOUDY    68  66  94 E7        29.90S
$$

ABBREVIATIONS USED IN REMARKS
   TC - TEMPERATURE IN CELSIUS
  WCI - WIND CHILL INDEX
   HX - HEAT INDEX
  VSB - VISIBILITY




USA.gov is the U.S. government's official web portal to all federal, state and local government web resources and services.